Regional Weather Roundup
Issued by NWS

Home | Current Version | Previous Version | Graphics & Text | Print | Product List | Glossary On
Versions: 1 2 3 4 5 6 7 8 9 10 11 12 13 14 15 16 17 18 19 20 21 22 23 24 25 26 27 28 29 30 31 32 33 34 35 36 37 38 39 40 41 42 43 44 45 46 47 48 49 50
000
ASUS45 KTFX 061410
RWRMT
MONTANA REGIONAL WEATHER ROUNDUP
NATIONAL WEATHER SERVICE GREAT FALLS MT
800 AM MDT FRI MAY 06 2016

NOTE: "FAIR" INDICATES FEW OR NO CLOUDS BELOW 12000 FEET WITH NO
SIGNIFICANT WEATHER AND/OR OBSTRUCTIONS TO VISIBILITY.

MTZ001>007-043-061500-
WEST OF THE DIVIDE

CITY           SKY/WX    TMP DP  RH WIND       PRES   REMARKS
KALISPELL      PTSUNNY   56  44  64 NE21G28   30.14R
MISSOULA       MOSUNNY   57  42  57 SE16      30.12R
BUTTE          CLOUDY    46  38  73 SE5       30.18R
MULLAN PASS    FOG       43  43 100 E7          N/A  VSB 1/4
ANACONDA         N/A     48  39  71 N13       30.18R
DEER LODGE       N/A     48  43  81 N15       30.19S
EUREKA           N/A     54  45  71 CALM        N/A
HAMILTON         N/A     54  41  62 W5        30.10R
LIBBY            N/A     55  46  71 W3        30.15R
$$

MTZ008-052>055-061500-
SOUTHWEST MONTANA

CITY           SKY/WX    TMP DP  RH WIND       PRES   REMARKS
BOZEMAN        CLOUDY    53  43  68 W7        30.13R
DILLON         CLOUDY    51  39  63 NE15      30.10R
ENNIS          SUNNY     48  41  76 N20       30.16R
THREE FORKS      N/A     55  28  35 N12       30.12R
TWIN BRIDGES     N/A     53  38  56 NW29      30.06R
$$

MTZ009-010-012-014-046-048-049-054-061500-
EAST SLOPES AND CENTRAL MONTANA

CITY           SKY/WX    TMP DP  RH WIND       PRES   REMARKS
CUT BANK       CLOUDY    47  41  80 N12       30.28R
GREAT FALLS    LGT RAIN  46  45  96 N9        30.27R
MALMSTROM AFB  CLOUDY    46  43  90 NE8       30.28R
HELENA         CLOUDY    50  43  77 NW10G20   30.23R
CHOTEAU          N/A     46  45  93 N6        30.29R
$$

MTZ011-013-016-021-045-047-050-051-061500-
NORTH CENTRAL MONTANA

CITY           SKY/WX    TMP DP  RH WIND       PRES   REMARKS
HAVRE          CLOUDY    50  42  74 N7        30.26R
LEWISTOWN      CLOUDY    47  44  90 NW10      30.23R FOG
N BAR RANCH    CLOUDY    48  43  81 NW10G17   30.22R
$$

MTZ017>020-022>027-061-062-061500-
NORTHEAST MONTANA

CITY           SKY/WX    TMP DP  RH WIND       PRES   REMARKS
GLASGOW        LGT RAIN  50  45  83 NW10      30.17R
JORDAN           N/A     53  43  68 N13G23    30.13R
SIDNEY         CLOUDY    57  39  51 N20G29    30.06R
WOLF POINT     CLOUDY    57  43  59 N16       30.11R
POPLAR           N/A     55  43  62 N14       30.09R
$$

MTZ028>42-056>058-061500-
SOUTHCENTRAL AND SOUTHEAST MONTANA

CITY           SKY/WX    TMP DP  RH WIND       PRES   REMARKS
BAKER          SUNNY     58  43  57 N15G28    30.03R
BILLINGS       CLOUDY    55  41  59 N13       30.17R HAZE
LIVINGSTON     PTSUNNY   54  40  59 E15       30.16R HAZE
MILES CITY     CLOUDY    60  42  51 N20G30    30.06R
FORSYTH          N/A     57  43  58 NW9       30.10R
LAUREL           N/A     55  40  57 N9        30.14R
ROUNDUP          N/A     53  41  64 N7        30.09R
$$

REGIONAL REPORTS...DAKOTAS

CITY           SKY/WX    TMP DP  RH WIND       PRES   REMARKS
MINOT          MOSUNNY   67  46  47 N20G31    29.91
DICKINSON      MOSUNNY   60  45  57 N16G25    29.96
BEACH            N/A     55  41  58 N24G30    30.06R
CROSBY           N/A     54  41  62 N24G30    30.07R
TIOGA            N/A     55  41  58 N21G26    30.06R
WATFORD CITY     N/A     57  41  54 N15G24    30.02R
GRAND FORKS    PTSUNNY   72  47  40 NW20      29.73R
FARGO          SUNNY     70  47  43 S10       29.74
BUFFALO SD       N/A     66  42  41 N16       29.88R
RAPID CITY     SUNNY     69  48  47 N5        29.90R
$$

REGIONAL REPORTS...WYOMING/IDAHO/WASHINGTON

CITY           SKY/WX    TMP DP  RH WIND       PRES   REMARKS
GILLETTE       CLOUDY    57  42  57 NW9       30.00R
SHERIDAN       CLOUDY    55  43  63 NW31G39   30.11R HAZE
BUFFALO WY     CLOUDY    58  41  53 NW26G40   30.07R
CODY           CLOUDY    54  37  54 N23G33    30.11R
YELLOWSTONE LA   N/A     40  33  76 CALM      30.15R
IDAHO FALLS    CLOUDY    56  41  57 E7        29.94R
SALMON         CLOUDY    54  45  71 SE7       30.03R
BOISE          PTSUNNY   56  50  80 W5        29.83F
SPOKANE        MOSUNNY   57  49  74 NE10      30.03R
$$

REGIONAL REPORTS...ALBERTA

CITY           SKY/WX    TMP DP  RH WIND       PRES   REMARKS
EDMONTON       SUNNY     45  25  45 W2        30.24R
CALGARY        MOSUNNY   43  36  75 CALM      30.29R
LETHBRIDGE     PTSUNNY   50  43  76 W6        30.28R
MEDICINE HAT   PTSUNNY   48  41  76 SW3       30.26R
WATERTON GATE    N/A     45  41  87 S1          N/A
MILK RIVER       N/A     46  45  93 N5          N/A
ONEFOUR          N/A     46  39  76 NW9         N/A
$$

REGIONAL REPORTS...SASKATCHEWAN

CITY           SKY/WX    TMP DP  RH WIND       PRES   REMARKS
SWIFT CURRENT  SUNNY     46  37  71 NW13      30.19R
REGINA         PTSUNNY   50  39  66 N15       30.14R
SASKATOON      CLOUDY    46  39  76 W10       30.14R
CYPRESS HILLS    N/A     41  34  75 N7          N/A
VAL MARIE        N/A     48  39  71 N16         N/A
ROCKGLEN         N/A     46  39  76 N18G25      N/A
ASSINIBOIA       N/A     41  34  75 W1          N/A
$$



USA.gov is the U.S. government's official web portal to all federal, state and local government web resources and services.